TimeWET,TemperatureF,Dew PointF,Humidity,Sea Level PressureIn,VisibilityMPH,Wind Direction,Wind SpeedMPH,Gust SpeedMPH,PrecipitationIn,Events,Conditions,WindDirDegrees,DateUTC
12:00 AM,58,31,24,,12,Calm,Calm,,,,Scattered Clouds,,2012-11-17 00:00:00
12:00 AM,57.2,32.0,38,30.04,-9999.0,Calm,Calm,-,N/A,,Clear,0,2012-11-17 00:00:00
1:00 AM,60.8,37.4,42,30.01,-9999.0,Variable,2.3,-,N/A,,Clear,0,2012-11-17 01:00:00
2:00 AM,59.0,28.4,31,29.98,-9999.0,Variable,1.2,-,N/A,,Clear,0,2012-11-17 02:00:00
3:00 AM,57,27,20,,12,Calm,Calm,,,,Scattered Clouds,,2012-11-17 03:00:00
3:00 AM,57.2,26.6,31,29.98,-9999.0,Calm,Calm,-,N/A,,Clear,0,2012-11-17 03:00:00
4:00 AM,55.4,26.6,33,29.95,-9999.0,Variable,3.5,-,N/A,,Clear,0,2012-11-17 04:00:00
5:00 AM,53.6,30.2,41,29.95,-9999.0,Calm,Calm,-,N/A,,Clear,0,2012-11-17 05:00:00
6:00 AM,52,27,26,,12,WNW,3.5,,,,Scattered Clouds,300,2012-11-17 06:00:00
6:00 AM,51.8,28.4,41,29.95,-9999.0,Variable,3.5,-,N/A,,Clear,0,2012-11-17 06:00:00
7:00 AM,51.8,28.4,41,29.95,-9999.0,Variable,2.3,-,N/A,,Clear,0,2012-11-17 07:00:00
8:00 AM,50.0,30.2,47,29.95,-9999.0,Variable,2.3,-,N/A,,Clear,0,2012-11-17 08:00:00
9:00 AM,54,28,24,,12,SE,1.2,,,,Partly Cloudy,140,2012-11-17 09:00:00
9:00 AM,53.6,28.4,38,29.95,-9999.0,Variable,1.2,-,N/A,,Clear,0,2012-11-17 09:00:00
10:00 AM,59.0,30.2,34,29.95,-9999.0,Variable,3.5,-,N/A,,Clear,0,2012-11-17 10:00:00
11:00 AM,62.6,30.2,30,29.92,-9999.0,South,4.6,-,N/A,,Clear,180,2012-11-17 11:00:00
12:00 PM,65,31,17,,12,ESE,5.8,,,,Scattered Clouds,120,2012-11-17 12:00:00
12:00 PM,64.4,30.2,28,29.92,-9999.0,ESE,5.8,-,N/A,,Clear,120,2012-11-17 12:00:00
1:00 PM,64.4,30.2,28,29.89,6.2,South,4.6,-,N/A,,Partly Cloudy,180,2012-11-17 13:00:00
2:00 PM,68.0,28.4,23,29.83,6.2,South,4.6,-,N/A,,Partly Cloudy,180,2012-11-17 14:00:00
3:00 PM,67,26,11,,12,NNW,3.5,,,,Scattered Clouds,340,2012-11-17 15:00:00
3:00 PM,68.0,26.6,21,29.83,6.2,Variable,2.3,-,N/A,,Partly Cloudy,0,2012-11-17 15:00:00
4:00 PM,69.8,26.6,20,29.83,6.2,Variable,2.3,-,N/A,,Scattered Clouds,0,2012-11-17 16:00:00
5:00 PM,64.4,28.4,26,29.83,6.2,WNW,13.8,-,N/A,,Mostly Cloudy,290,2012-11-17 17:00:00
6:00 PM,63,37,26,,12,WNW,23.0,,,,Mostly Cloudy,290,2012-11-17 18:00:00
6:00 PM,62.6,37.4,39,29.83,6.2,WNW,23.0,-,N/A,,Partly Cloudy,290,2012-11-17 18:00:00
7:00 PM,59.0,39.2,48,29.86,6.2,WNW,16.1,-,N/A,,Partly Cloudy,300,2012-11-17 19:00:00
8:00 PM,59.0,39.2,48,29.86,6.2,WNW,13.8,-,N/A,,Partly Cloudy,300,2012-11-17 20:00:00
9:00 PM,58,37,33,,12,WNW,13.8,,,,Mostly Cloudy,300,2012-11-17 21:00:00
9:00 PM,57.2,37.4,48,29.89,6.2,WNW,13.8,-,N/A,,Partly Cloudy,300,2012-11-17 21:00:00
10:00 PM,57.2,35.6,44,29.89,6.2,WNW,17.3,-,N/A,,Partly Cloudy,290,2012-11-17 22:00:00
11:00 PM,57.2,37.4,48,29.89,6.2,WNW,15.0,-,N/A,,Mostly Cloudy,290,2012-11-17 23:00:00